Torna al catalogo

SL-14 R/B

AttivoLEO
NORAD 10096·ROCKET BODY·🇷🇺 Russia

Lanciato Jun 24, 1977 da Plesetsk Cosmodrome

Loading…

Prossimi Passaggi (prossime 24 ore)

TLE

AggiornatoSource: Space-Track

Epoca: Sep 14, 2026, 22:11 UTC

1 10096U 77055B   26257.92451003  .00000332  00000-0  34185-4 0  9999
2 10096  75.8313 112.3652 0041104 232.4260 127.3198 14.92213091664799

Traccia SL-14 R/B in tempo reale con AllMySat

Download on the App Store